Harlan, KY

12:34 AM EDT on June 25, 2017 (GMT -0400)
Harlan

Weather History for KI35 - March, 2014

Change the Weather History Date:

Saturday, March 15, 2014

  Actual Average (KLOZ) Record (KLOZ)
Temperature  
Mean Temperature 55 °F -  
Max Temperature 66 °F 59 °F 84 °F (1977)
Min Temperature 44 °F 34 °F 1 °F (1993)
Degree Days  
Heating Degree Days 10    
Growing Degree Days 5 (Base 50)    
Moisture  
Dew Point 29 °F    
Average Humidity 39    
Maximum Humidity 58    
Minimum Humidity 19    
Precipitation  
Precipitation 0.00 in - - ()
Sea Level Pressure  
Sea Level Pressure 30.05 in    
Wind  
Wind Speed 9 mph (West)    
Max Wind Speed 15 mph    
Max Gust Speed 30 mph    
Visibility 10 miles    
Events      
Averages and records for this station are not official NWS values.
T = Trace of Precipitation, MM = Missing Value Source: NWS Daily Summary

Daily Weather History Graph

Daily Weather History Graph

Search for Another Location

Airport or City:

Trip Planner

Search our weather history database for the weather conditions in past years. The results will help you decide how hot, cold, wet, or windy it might be!

Date:

Astronomy

Mar. 15, 2014 Rise Set
Actual Time 7:44 AM EDT 7:40 PM EDT
Civil Twilight 7:18 AM EDT 8:06 PM EDT
Nautical Twilight 6:48 AM EDT 8:36 PM EDT
Astronomical Twilight 6:18 AM EDT 9:07 PM EDT
Moon 6:59 PM EDT (3/15) 6:54 AM EDT (3/15)
Length of Visible Light 12h 48m
Length of Day
11h 56m
Waxing Gibbous, 99% of the Moon is Illuminated
Mar 15
Waxing Gibbous
Mar 16
Full
Mar 23
Last Quarter
Mar 30
New
Apr 7
First Quarter

Hourly Weather History & Observations

Time (EDT) Temp. Windchill Dew Point Humidity Pressure Visibility Wind Dir Wind Speed Gust Speed Precip Events Conditions
12:15 AM 55.4 °F - 26.6 °F 33% 30.01 in 10.0 mi West 11.5 mph 16.1 mph N/A   Overcast
12:35 AM 55.4 °F - 28.4 °F 36% 30.01 in 10.0 mi West 9.2 mph 25.3 mph N/A   Overcast
12:55 AM 55.4 °F - 28.4 °F 36% 30.01 in 10.0 mi West 11.5 mph 20.7 mph N/A   Overcast
1:15 AM 55.4 °F - 30.2 °F 38% 30.01 in 10.0 mi West 9.2 mph 24.2 mph N/A   Overcast
1:35 AM 55.4 °F - 30.2 °F 38% 30.01 in 10.0 mi West 9.2 mph 21.9 mph N/A   Overcast
1:55 AM 53.6 °F - 30.2 °F 41% 30.01 in 10.0 mi WSW 12.7 mph 28.8 mph N/A   Overcast
2:15 AM 53.6 °F - 30.2 °F 41% 30.01 in 10.0 mi WSW 15.0 mph 24.2 mph N/A   Overcast
2:35 AM 53.6 °F - 32.0 °F 44% 30.01 in 10.0 mi West 13.8 mph 23.0 mph N/A   Overcast
2:55 AM 53.6 °F - 32.0 °F 44% 30.02 in 10.0 mi West 12.7 mph 21.9 mph N/A   Overcast
3:15 AM 53.6 °F - 30.2 °F 41% 30.02 in 10.0 mi West 13.8 mph 29.9 mph N/A   Overcast
3:35 AM 53.6 °F - 30.2 °F 41% 30.01 in 10.0 mi WNW 10.4 mph 18.4 mph N/A   Overcast
3:55 AM 53.6 °F - 30.2 °F 41% 30.01 in 10.0 mi WSW 15.0 mph 25.3 mph N/A   Scattered Clouds
4:15 AM 51.8 °F - 30.2 °F 44% 30.01 in 10.0 mi West 8.1 mph 23.0 mph N/A   Scattered Clouds
4:35 AM 51.8 °F - 30.2 °F 44% 30.01 in 10.0 mi West 8.1 mph 20.7 mph N/A   Mostly Cloudy
4:55 AM 51.8 °F - 32.0 °F 47% 30.01 in 10.0 mi West 9.2 mph - N/A   Overcast
5:15 AM 51.8 °F - 32.0 °F 47% 30.02 in 10.0 mi West 8.1 mph 18.4 mph N/A   Overcast
5:35 AM 51.8 °F - 32.0 °F 47% 30.03 in 10.0 mi WSW 15.0 mph 19.6 mph N/A   Overcast
5:55 AM 51.8 °F - 32.0 °F 47% 30.03 in 10.0 mi West 6.9 mph - N/A   Overcast
6:15 AM 51.8 °F - 33.8 °F 50% 30.03 in 10.0 mi West 8.1 mph 19.6 mph N/A   Overcast
6:35 AM 51.8 °F - 33.8 °F 50% 30.04 in 10.0 mi West 10.4 mph 21.9 mph N/A   Overcast
6:55 AM 51.8 °F - 33.8 °F 50% 30.04 in 10.0 mi West 11.5 mph 20.7 mph N/A   Overcast
7:15 AM 50.0 °F - 33.8 °F 54% 30.05 in 10.0 mi West 6.9 mph 21.9 mph N/A   Overcast
7:35 AM 50.0 °F - 33.8 °F 54% 30.05 in 10.0 mi West 8.1 mph 16.1 mph N/A   Mostly Cloudy
7:55 AM 50.0 °F - 33.8 °F 54% 30.06 in 10.0 mi West 6.9 mph - N/A   Scattered Clouds
8:15 AM 50.0 °F - 33.8 °F 54% 30.07 in 10.0 mi WNW 6.9 mph - N/A   Mostly Cloudy
8:35 AM 50.0 °F - 33.8 °F 54% 30.07 in 10.0 mi West 6.9 mph - N/A   Scattered Clouds
8:55 AM 50.0 °F - 35.6 °F 58% 30.07 in 10.0 mi West 6.9 mph - N/A   Clear
9:15 AM 51.8 °F - 35.6 °F 54% 30.08 in 10.0 mi WNW 8.1 mph - N/A   Clear
9:35 AM 51.8 °F - 35.6 °F 54% 30.08 in 10.0 mi West 6.9 mph 16.1 mph N/A   Clear
9:55 AM 51.8 °F - 35.6 °F 54% 30.09 in 10.0 mi West 6.9 mph - N/A   Clear
10:15 AM 53.6 °F - 35.6 °F 51% 30.10 in 10.0 mi West 6.9 mph - N/A   Clear
10:35 AM 53.6 °F - 35.6 °F 51% 30.10 in 10.0 mi West 10.4 mph 17.3 mph N/A   Scattered Clouds
10:55 AM 55.4 °F - 35.6 °F 47% 30.10 in 10.0 mi West 4.6 mph - N/A   Clear
11:15 AM 57.2 °F - 35.6 °F 44% 30.11 in 10.0 mi West 5.8 mph - N/A   Clear
11:35 AM 59.0 °F - 32.0 °F 36% 30.11 in 10.0 mi NW 8.1 mph - N/A   Scattered Clouds
11:55 AM 59.0 °F - 32.0 °F 36% 30.11 in 10.0 mi WSW 10.4 mph - N/A   Scattered Clouds
12:15 PM 60.8 °F - 32.0 °F 34% 30.11 in 10.0 mi SW 8.1 mph - N/A   Clear
12:35 PM 60.8 °F - 30.2 °F 31% 30.10 in 10.0 mi NW 6.9 mph 17.3 mph N/A   Clear
12:55 PM 60.8 °F - 28.4 °F 29% 30.10 in 10.0 mi WSW 12.7 mph 19.6 mph N/A   Clear
1:15 PM 60.8 °F - 28.4 °F 29% 30.10 in 10.0 mi SSW 6.9 mph - N/A   Clear
1:35 PM 62.6 °F - 28.4 °F 27% 30.09 in 10.0 mi WNW 15.0 mph 20.7 mph N/A   Clear
2:15 PM 62.6 °F - 28.4 °F 27% 30.07 in 10.0 mi WNW 3.5 mph 18.4 mph N/A   Clear
2:35 PM 62.6 °F - 28.4 °F 27% 30.06 in 10.0 mi NW 12.7 mph 19.6 mph N/A   Clear
2:55 PM 64.4 °F - 28.4 °F 26% 30.06 in 10.0 mi WNW 8.1 mph - N/A   Clear
3:15 PM 64.4 °F - 26.6 °F 24% 30.05 in 10.0 mi North 6.9 mph 18.4 mph N/A   Clear
3:35 PM 64.4 °F - 24.8 °F 22% 30.05 in 10.0 mi NNW 5.8 mph - N/A   Clear
3:55 PM 62.6 °F - 23.0 °F 22% 30.04 in 10.0 mi NW 6.9 mph 16.1 mph N/A   Clear
4:15 PM 64.4 °F - 26.6 °F 24% 30.04 in 10.0 mi NNW 9.2 mph - N/A   Clear
4:35 PM 66.2 °F - 23.0 °F 19% 30.04 in 10.0 mi NNW 6.9 mph - N/A   Clear
4:55 PM 62.6 °F - 23.0 °F 22% 30.03 in 10.0 mi Calm Calm - N/A   Clear
5:15 PM 64.4 °F - 23.0 °F 21% 30.03 in 10.0 mi Calm Calm - N/A   Clear
5:35 PM 62.6 °F - 23.0 °F 22% 30.02 in 10.0 mi NW 8.1 mph - N/A   Clear
5:55 PM 64.4 °F - 23.0 °F 21% 30.02 in 10.0 mi NNW 4.6 mph - N/A   Clear
6:15 PM 64.4 °F - 21.2 °F 19% 30.02 in 10.0 mi WNW 3.5 mph - N/A   Clear
6:35 PM 62.6 °F - 21.2 °F 20% 30.03 in 10.0 mi NNW 5.8 mph - N/A   Clear
6:55 PM 62.6 °F - 21.2 °F 20% 30.03 in 10.0 mi Calm Calm - N/A   Clear
7:15 PM 60.8 °F - 21.2 °F 22% 30.03 in 10.0 mi NNW 3.5 mph - N/A   Clear
7:35 PM 60.8 °F - 21.2 °F 22% 30.03 in 10.0 mi Calm Calm - N/A   Clear
7:55 PM 59.0 °F - 21.2 °F 23% 30.03 in 10.0 mi Calm Calm - N/A   Clear
8:15 PM 57.2 °F - 21.2 °F 25% 30.03 in 10.0 mi Calm Calm - N/A   Clear
8:35 PM 55.4 °F - 23.0 °F 29% 30.03 in 10.0 mi Calm Calm - N/A   Clear
8:55 PM 53.6 °F - 24.8 °F 33% 30.04 in 10.0 mi Calm Calm - N/A   Clear
9:15 PM 51.8 °F - 26.6 °F 38% 30.04 in 10.0 mi East 10.4 mph - N/A   Clear
9:35 PM 50.0 °F - 26.6 °F 40% 30.04 in 10.0 mi ESE 4.6 mph - N/A   Clear
9:55 PM 50.0 °F - 30.2 °F 47% 30.03 in 10.0 mi Calm Calm - N/A   Clear
10:15 PM 48.2 °F - 28.4 °F 46% 30.05 in 10.0 mi NE 3.5 mph - N/A   Clear
10:35 PM 46.4 °F - 30.2 °F 53% 30.04 in 10.0 mi Calm Calm - N/A   Clear
10:55 PM 46.4 °F 45.2 °F 30.2 °F 53% 30.04 in 10.0 mi East 3.5 mph - N/A   Clear
11:15 PM 44.6 °F - 30.2 °F 57% 30.05 in 10.0 mi Calm Calm - N/A   Clear
11:35 PM 44.6 °F 43.1 °F 30.2 °F 57% 30.05 in 10.0 mi ENE 3.5 mph - N/A   Clear
11:55 PM 44.6 °F 43.1 °F 30.2 °F 57% 30.05 in 10.0 mi East 3.5 mph - N/A   Clear